Location: Asheville, NC
(35.6000°N, 82.5500°W)
Time: 20:12:18

nSIGHT-1 - Pass Details

Date: 12 March 2018
Orbit: 384 x 391 km, 51.6° (Epoch: 19 March)

Event Time Altitude Azimuth Distance (km) Brightness Sun altitude
Exits shadow 06:56:24 - 328° (NNW) 2,276 ? -10.7°
Reaches altitude 10° 07:00:01 10° 11° (NNE) 1,420 ? -10.0°
Maximum altitude 07:00:41 11° 23° (NNE) 1,392 ? -9.9°
Drops below altitude 10° 07:01:20 10° 35° (NE) 1,418 ? -9.7°
Sets 07:04:57 0° 79° (E) 2,268 ? -9.0°
